Meteo Giornale » Osservazioni meteo Italia » Firenze-Peretola

ore: 23:20 - Osservazioni Meteo Firenze-Peretola
Lat. 43° 48' N Lon. 11° 12' E Alt. 40 metri s.l.m.

sereno Europe/Rome

16 °C

Sereno

Temp. 24 Ore

11 °C

26 °C

Nord

5.5 Km/h

Dew point 12 °C

Umidità 77 %

Visibilità  10 Km

Il sole sorge alle ore 06:13

Il sole tramonta alle ore 20:12

Data e Ora Cielo e Fenomeni T °C DP °C Um. % Pres. hPa Vis. km Vento km/h
Oggi h: 23:20 sereno Sereno 16 12 77 1016 10 N 5.5
Oggi h: 22:50 sereno Sereno 17 12 72 1016 10 N 5.5
Oggi h: 22:20 sereno Sereno 18 12 67 1016 10 S/SO 13
Oggi h: 21:50 sereno Sereno 19 12 63 1016 10 S/SO 11.1
Oggi h: 21:20 sereno Sereno 20 14 68 1016 10 SO 11.1
Oggi h: 20:50 sereno Sereno 21 14 64 1015 10 SO 13
Oggi h: 20:20 sereno Sereno 22 14 60 1015 10 SO 13
Oggi h: 19:50 sereno Sereno 23 13 53 1014 10 SO 13
Oggi h: 19:20 sereno Sereno 24 13 50 1014 10 SO 14.8
Oggi h: 18:50 sereno Sereno 24 13 50 1014 10 SO 14.8
Oggi h: 18:20 sereno Sereno 25 14 50 1014 10 O/SO 14.8
Oggi h: 17:50 sereno Sereno 25 14 50 1014 10 O 13
Oggi h: 17:20 sereno Sereno 25 13 47 1015 10 O/SO 14.8
Oggi h: 16:50 sereno Sereno 26 11 39 1015 10 O/SO 14.8
Oggi h: 16:20 sereno Sereno 26 11 39 1015 10 O 14.8
Oggi h: 15:50 sereno Sereno 26 11 39 1015 10 O 13
Oggi h: 15:20 sereno Sereno 26 12 41 1016 10 O/SO 9.3
Oggi h: 14:50 sereno Sereno 26 12 41 1016 10 O 9.3
Oggi h: 14:20 sereno Sereno 25 12 44 1017 10 SO 13
Oggi h: 13:50 sereno Sereno 24 11 43 1017 10 N 7.4
Oggi h: 13:20 sereno Sereno 24 11 43 1017 10 NO 9.3
Oggi h: 12:50 sereno Sereno 24 13 50 1017 10 NO 7.4
Oggi h: 12:20 sereno Sereno 23 12 49 1018 10 N 5.5
Oggi h: 11:50 sereno Sereno 22 11 49 1018 10 N 5.5
Oggi h: 11:20 sereno Sereno 21 11 52 1018 10 N 3.7
Oggi h: 10:50 sereno Sereno 20 11 56 1018 10 N 3.7
Oggi h: 10:20 sereno Sereno 19 12 63 1019 10 N 5.5
Oggi h: 09:50 sereno Sereno 18 12 67 1019 10 N 3.7
Oggi h: 09:20 sereno Sereno 17 11 67 1019 9 N 1.8
Oggi h: 08:50 sereno Sereno 16 11 72 1019 9 N 1.8
Oggi h: 08:20 sereno Sereno 15 12 82 1019 9 N 1.8
Oggi h: 07:50 sereno Sereno 14 12 87 1018 9 N 1.8
Oggi h: 07:20 sereno Sereno 12 11 93 1018 10 N 3.7
Oggi h: 06:50 sereno Sereno 11 10 93 1018 10 N 1.8
Oggi h: 06:20 sereno Sereno 11 10 93 1018 10 N 0
Oggi h: 05:50 sereno Sereno 12 11 93 1018 10 N 1.8
Oggi h: 05:20 sereno Sereno 12 10 87 1018 10 N 5.5
Oggi h: 04:20 sereno Sereno 12 10 87 1018 10 N 1.8
Oggi h: 03:50 sereno Sereno 13 11 87 1018 10 N 3.7
Oggi h: 02:50 sereno Sereno 12 10 87 1018 10 E 7.4
Oggi h: 02:20 sereno Sereno 12 10 87 1018 10 E/NE 7.4
Oggi h: 01:50 sereno Sereno 13 11 87 1018 10 E 7.4
Oggi h: 01:20 sereno Sereno 13 11 87 1018 10 N 3.7
Oggi h: 00:50 sereno Sereno 13 11 87 1018 10 N 3.7
Oggi h: 00:20 sereno Sereno 14 12 87 1018 10 N 3.7
Ieri h: 23:50 sereno Sereno 15 12 82 1018 10 E 7.4